Regional Weather Roundup
Issued by NWS

Home | Current Version | Previous Version | Graphics & Text | Print | Product List | Glossary On
Versions: 1 2 3 4 5 6 7 8 9 10 11 12 13 14 15 16 17 18 19 20 21 22 23 24 25 26 27 28 29 30 31 32 33 34 35 36 37 38 39 40 41 42 43 44 45 46 47 48 49 50
000
ASUS43 KLSX 180659
RWRMO

WEATHER SUMMARY FOR MISSOURI
NATIONAL WEATHER SERVICE SPRINGFIELD MO
100 AM CST THU DEC 18 2014

NOTE: "FAIR" INDICATES FEW OR NO CLOUDS BELOW 12,000 FEET WITH NO
       SIGNIFICANT WEATHER AND/OR OBSTRUCTIONS TO VISIBILITY.
       CURRENT SKY AND/OR WEATHER CONDITIONS ARE NOT AVAILABLE FOR
       CHILLICOTHE AND FARMINGTON.

MOZ001>031-035>038-043-044-053-054-180800-
...NORTHERN AND WESTERN MISSOURI...

CITY           SKY/WX    TMP DP  RH WIND       PRES   REMARKS
KANSAS CTY INT LGT SNOW  28  26  92 E6        30.24F VSB 3/4 WCI  22
KANSAS C DTWN  SNOW      29  27  92 E6        30.26S VSB 1/2 WCI  23
LEE`S SUMMIT   LGT SNOW  28  25  88 E3        30.25S FOG
ST JOSEPH      FLURRIES  29  22  75 E3        30.27F
CHILLICOTHE      N/A     30  22  72 E3        30.30F
KIRKSVILLE     CLOUDY    27  21  78 E3        30.29R

$$
MOZ066>068-077>081-088>096-101>105-180800-
...SOUTHWEST MISSOURI...

CITY           SKY/WX    TMP DP  RH WIND       PRES   REMARKS
SPRINGFIELD    MIX PCPN  33  31  92 SE12      30.19S FOG     WCI  24
JOPLIN         CLOUDY    33  33 100 NE7       30.18F FOG     WCI  27

$$
MOZ032>034-039>042-045>050-055>058-069>072-180800-
...CENTRAL MISSOURI...

CITY           SKY/WX    TMP DP  RH WIND       PRES   REMARKS
COLUMBIA       CLOUDY    31  25  78 E5        30.26R WCI  26
JEFFERSON CITY CLOUDY    34  25  69 CALM      30.27S
ROLLA          LGT SNOW  31  27  85 E3        30.22S FOG
SEDALIA        FLURRIES  32  26  78 NE6       30.26S WCI  26
WARRENSBURG    LGT SNOW  30  28  93 N3        30.26S
OSAGE BEACH    CLOUDY    30  28  93 NE3       30.23S

$$
MOZ051-052-059>065-180800-
...EAST CENTRAL MISSOURI...

CITY           SKY/WX    TMP DP  RH WIND       PRES   REMARKS
ST LOUIS INTL  CLOUDY    31  24  75 E6        30.30F WCI  25
SPIRIT OF STL  CLOUDY   N/A N/A N/A N6        30.29F
ST CHARLES     CLOUDY    29  24  82 E3        30.31F

$$
MOZ072>076-082>087-097>100-106>115-180800-
...SOUTH CENTRAL AND SOUTHEAST MISSOURI...

CITY           SKY/WX    TMP DP  RH WIND       PRES   REMARKS
CAPE GIRARDEAU LGT RAIN  33  32  96 NE3       30.29F
FARMINGTON     CLOUDY    34  28  80 W5        30.27F WCI  30
POPLAR BLUFF   LGT RAIN  33  31  92 NE6       30.26F FOG     WCI  28
WEST PLAINS    MIX PCPN  33  31  92 S3        30.22F

$$


USA.gov is the U.S. government's official web portal to all federal, state and local government web resources and services.